This is the latest recevied weather packets stored in our database for station/object DL1MMS-10. If no packets are shown the sender has not sent any weather packets the latest 10 day(s).
| Time | Temp. | Humidity | Pressure | Rain* | Wind** | Luminosity | Snow |
|---|---|---|---|---|---|---|---|
| 1778007498 | 13.33° C | 72% | 1009.7 hPa | 0 mm | - | - | - |
| 1778007197 | 13.89° C | 71% | 1009.8 hPa | 0 mm | - | - | - |
| 1778006897 | 13.89° C | 70% | 1009.6 hPa | 0 mm | - | - | - |
| 1778006597 | 13.89° C | 69% | 1009.5 hPa | 0 mm | - | - | - |
| 1778006296 | 14.44° C | 68% | 1009.6 hPa | 0 mm | - | - | - |
| 1778005996 | 15° C | 66% | 1009.7 hPa | 0 mm | - | - | - |
| 1778005696 | 15° C | 65% | 1009.4 hPa | 0 mm | - | - | - |
| 1778005395 | 15.56° C | 64% | 1009.2 hPa | 0 mm | - | - | - |
| 1778005095 | 15.56° C | 63% | 1009 hPa | 0 mm | - | - | - |
| 1778004795 | 15.56° C | 61% | 1008.9 hPa | 0 mm | - | - | - |
| 1778004495 | 16.11° C | 61% | 1008.9 hPa | 0 mm | - | - | - |
| 1778004194 | -30° C | 60% | 1008.8 hPa | 0 mm | - | - | - |
| 1778003894 | 16.67° C | 60% | 1008.8 hPa | 0 mm | - | - | - |
| 1778003594 | 16.67° C | 59% | 1008.8 hPa | 0 mm | - | - | - |
| 1778003294 | 16.67° C | 59% | 1008.8 hPa | 0 mm | - | - | - |
| 1778002993 | 16.67° C | 59% | 1008.8 hPa | 0 mm | - | - | - |
| 1778002693 | 16.67° C | 59% | 1008.6 hPa | 0 mm | - | - | - |
| 1778002393 | 16.67° C | 59% | 1008.5 hPa | 0 mm | - | - | - |
| 1778002092 | 17.22° C | 58% | 1008.4 hPa | 0 mm | - | - | - |
| 1778001792 | 17.22° C | 57% | 1008.5 hPa | 0 mm | - | - | - |
| 1778001492 | 17.78° C | 55% | 1008.5 hPa | 0 mm | - | - | - |
| 1778001192 | 18.33° C | 54% | 1008.4 hPa | 0 mm | - | - | - |
| 1778000891 | 18.89° C | 52% | 1008.5 hPa | 0 mm | - | - | - |
| 1778000591 | 19.44° C | 50% | 1008.4 hPa | 0 mm | - | - | - |
| 1778000291 | 20° C | 48% | 1008.3 hPa | 0 mm | - | - | - |
* Rain latest hour (hover to see other rain measurements)
** Current wind speed in m/s (hover to see current wind gust speed)